[[{"header":{"parameterUnit":"m.s-1","parameterCategory":1,"la1":30.2991,"la2":30.254,"lo1":-89.0895,"lo2":-89.0444,"dy":0.0017,"dx":0.0017,"nx":28,"ny":28,"refTime":"2024-05-07T09:00:00:Z","depth":0,"parameterNumber":2,"parameterNumberName":"U-component_of_WINDS"},"data":[0,0,0,0,0,0,0,0,0,0,0,0,0,0,0,0,0,0,0,0,0,0,0,0,0,0,0,0,0,0,0,0,0,0,0,0,0,0,0,0,0,0,0,0,0,0,0,0,0,0,0,0,0,0,0,0,0,0,-1.3021,-1.3021,0,-1.3019,-1.3019,-1.3018,-1.3027,-1.3028,-1.3028,-1.3028,-1.3024,-1.3024,-1.3024,0,0,0,0,0,0,0,0,0,0,0,0,0,-1.3032,-1.3032,-1.3021,-1.3021,-1.3021,-1.3019,-1.3019,-1.3018,-1.3027,-1.3028,-1.3028,-1.3028,-1.3025,-1.3024,-1.3024,0,0,0,0,0,0,0,0,0,0,0,0,0,-1.3028,-1.3032,-1.3021,-1.3025,-1.3025,-1.3019,-1.3019,-1.3018,-1.3027,-1.3028,-1.3028,-1.3028,-1.3025,-1.3024,-1.3024,-1.3012,0,0,-1.3022,-1.3022,0,0,0,0,0,0,0,0,-1.3029,-1.3028,-1.3024,-1.3025,-1.3025,-1.3024,-1.3021,-1.3016,-1.3027,-1.3026,-1.3028,-1.3029,-1.3024,-1.3023,-1.3022,-1.3012,-1.3012,-1.3022,-1.3022,-1.3022,-1.3021,0,0,0,0,0,0,0,-1.3029,-1.3028,-1.302,-1.3024,-1.3025,-1.3027,-1.3027,-1.302,-1.3023,-1.3027,-1.3027,-1.3027,-1.3024,-1.3022,-1.3022,-1.3012,-1.3022,-1.3022,-1.3021,-1.3021,-1.2994,-1.2993,0,0,0,0,0,0,-1.3029,-1.3028,-1.302,-1.302,-1.3028,-1.3026,-1.3026,-1.3024,-1.3023,-1.3023,-1.3027,-1.3027,-1.3023,-1.3023,-1.3022,-1.3009,-1.3022,-1.3021,-1.3021,-1.2994,-1.2994,-1.2993,0,0,0,0,0,0,-1.3029,-1.3028,-1.302,-1.3024,-1.3023,-1.3026,-1.3023,-1.3023,-1.3022,-1.3023,-1.3023,-1.3025,-1.3023,-1.3023,-1.3015,-1.3009,-1.3021,-1.302,-1.2995,-1.2994,-1.2993,-1.2983,0,0,0,0,0,0,-1.3029,-1.3028,-1.3024,-1.3024,-1.3023,-1.3013,-1.3022,-1.3023,-1.3021,-1.3022,-1.3021,-1.3021,-1.3024,-1.3016,-1.3014,-1.3008,-1.302,-1.2995,-1.2994,-1.2994,-1.2984,-1.2982,-1.2981,0,0,0,0,0,-1.303,-1.3021,-1.3024,-1.3022,-1.3018,-1.3013,-1.3012,-1.3016,-1.3021,-1.3016,-1.3017,-1.3021,-1.301,-1.3015,-1.3014,-1.3007,-1.2996,-1.2995,-1.2994,-1.2985,-1.2982,-1.2981,0,0,0,0,0,0,-1.3019,-1.3021,-1.3024,-1.3015,-1.3014,-1.3014,-1.3009,-1.3013,-1.301,-1.3011,-1.3015,-1.3015,-1.3006,-1.3006,-1.3012,-1.2997,-1.3004,-1.3002,-1.2997,-1.2995,-1.2993,-1.2994,-1.3019,0,0,0,0,0,-1.3015,-1.3011,-1.3013,-1.3005,-1.3004,-1.3007,-1.3005,-1.3007,-1.3006,-1.3006,-1.3006,-1.3004,-1.3001,-1.2998,-1.2994,-1.2984,-1.2984,-1.2979,-1.2978,-1.2976,-1.2975,-1.297,-1.2968,-1.299,-1.299,-1.299,0,0,-1.3008,-1.3009,-1.3006,-1.3003,-1.3002,-1.2998,-1.3006,-1.3001,-1.2998,-1.3005,-1.2998,-1.2998,-1.2997,-1.2988,-1.2984,-1.2987,-1.2969,-1.2975,-1.2974,-1.2973,-1.2969,-1.2967,-1.2965,-1.299,-1.299,-1.299,0,0,-1.2992,-1.2992,-1.2986,-1.2985,-1.2985,-1.2987,-1.2985,-1.2986,-1.2986,-1.298,-1.2985,-1.2981,-1.2974,-1.2973,-1.2972,-1.2957,-1.2961,-1.2956,-1.2947,-1.2942,-1.294,-1.2939,-1.2933,-1.2932,-1.2955,-1.2955,-1.2955,0,-1.2983,-1.2977,-1.2982,-1.2976,-1.2975,-1.2982,-1.2975,-1.2974,-1.2973,-1.2971,-1.2975,-1.2968,-1.2967,-1.2958,-1.2955,-1.2954,-1.2952,-1.2956,-1.294,-1.2939,-1.2937,-1.2932,-1.293,-1.2954,-1.2954,-1.2954,-1.2954,0,-1.2966,-1.2962,-1.2956,-1.2955,-1.2953,-1.2947,-1.2951,-1.2948,-1.2951,-1.2953,-1.2946,-1.2946,-1.2943,-1.2941,-1.2944,-1.2933,-1.2935,-1.294,-1.2946,-1.2934,-1.293,-1.2928,-1.2953,-1.2953,-1.2954,-1.2954,0,0,-1.2942,-1.2945,-1.2943,-1.2942,-1.2943,-1.294,-1.2934,-1.2932,-1.2929,-1.2928,-1.2924,-1.2918,-1.2923,-1.2921,-1.2924,-1.292,-1.2908,-1.2925,-1.2925,-1.2922,-1.2896,-1.2893,-1.2891,-1.2911,-1.2911,-1.2911,-1.2897,0,-1.2927,-1.2918,-1.2923,-1.2913,-1.2909,-1.2916,-1.2912,-1.2911,-1.2913,-1.291,-1.2912,-1.2908,-1.2914,-1.2913,-1.2909,-1.2911,-1.2903,-1.2912,-1.2907,-1.2907,-1.2907,-1.2888,-1.2884,-1.2871,-1.2895,-1.2895,-1.2894,0,-1.2908,-1.2907,-1.2897,-1.2899,-1.2897,-1.2893,-1.2892,-1.2889,-1.2889,-1.289,-1.2889,-1.2893,-1.2888,-1.2895,-1.2888,-1.2894,-1.2892,-1.2893,-1.2892,-1.2891,-1.2899,-1.2887,-1.2867,-1.2865,-1.2892,-1.2892,-1.2892,0,-1.2892,-1.2888,-1.2882,-1.2881,-1.2883,-1.288,-1.2881,-1.2881,-1.288,-1.2878,-1.2877,-1.2875,-1.2874,-1.2872,-1.2876,-1.2881,-1.2868,-1.2875,-1.2869,-1.2869,-1.2865,-1.2866,-1.2845,-1.2865,-1.2865,-1.2865,-1.2865,0,-1.2874,-1.2868,-1.2875,-1.2871,-1.2864,-1.2869,-1.2862,-1.2864,-1.2864,-1.2861,-1.2867,-1.2863,-1.2868,-1.2865,-1.2868,-1.2862,-1.2861,-1.2862,-1.2863,-1.2861,-1.2861,-1.286,-1.2861,-1.2864,-1.2864,-1.2865,-1.2865,0,-1.2855,-1.2859,-1.2853,-1.2856,-1.2856,-1.2851,-1.2853,-1.285,-1.2852,-1.2848,-1.2847,-1.2851,-1.2848,-1.2851,-1.2848,-1.285,-1.2841,-1.2844,-1.2841,-1.2842,-1.2835,-1.2836,-1.2812,-1.281,-1.2832,-1.2832,-1.2831,0,-1.2843,-1.2839,-1.2841,-1.284,-1.284,-1.2837,-1.2836,-1.2841,-1.284,-1.284,-1.2836,-1.2834,-1.2832,-1.2827,-1.2829,-1.2827,-1.2829,-1.2821,-1.2829,-1.2828,-1.2829,-1.2829,-1.2829,-1.2819,-1.2819,-1.2819,-1.2819,0,-1.2822,-1.2825,-1.2823,-1.2822,-1.2821,-1.282,-1.282,-1.2818,-1.2823,-1.2821,-1.2819,-1.2817,-1.2815,-1.2812,-1.2811,-1.2811,-1.2816,-1.2816,-1.2815,-1.2813,-1.2812,-1.2813,-1.2837,-1.2817,-1.2817,-1.2817,-1.2817,-1.2817,-1.2807,-1.2803,-1.2805,-1.2803,-1.2803,-1.2803,-1.28,-1.2802,-1.28,-1.2799,-1.2802,-1.2799,-1.2799,-1.2798,-1.2798,-1.2795,-1.2799,-1.2796,-1.2796,-1.2795,-1.2794,-1.2813,-1.2795,-1.2795,-1.2795,-1.2795,-1.2795,0,-1.2786,-1.2788,-1.2786,-1.2786,-1.2784,-1.2789,-1.2789,-1.2788,-1.2785,-1.2785,-1.2784,-1.2781,-1.2778,-1.2781,-1.2779,-1.2776,-1.2778,-1.2776,-1.2776,-1.2776,-1.2791,-1.2793,-1.2774,-1.2774,-1.2774,-1.2774,-1.2774,-1.2774,-1.2775,-1.277,-1.2772,-1.2767,-1.2769,-1.2766,-1.2766,-1.2766,-1.2766,-1.2763,-1.2761,-1.2763,-1.2764,-1.2763,-1.2761,-1.2762,-1.2761,-1.2757,-1.2759,-1.2773,-1.2775,-1.2777,-1.2778,-1.2757,-1.2757,-1.2744,-1.2744,-1.2744]},{"header":{"parameterUnit":"m.s-1","parameterCategory":1,"la1":30.2991,"la2":30.254,"lo1":-89.0895,"lo2":-89.0444,"dy":0.0017,"dx":0.0017,"nx":28,"ny":28,"refTime":"2024-05-07T09:00:00:Z","depth":0,"parameterNumber":3,"parameterNumberName":"V-component_of_WINDS"},"data":[0,0,0,0,0,0,0,0,0,0,0,0,0,0,0,0,0,0,0,0,0,0,0,0,0,0,0,0,0,0,0,0,0,0,0,0,0,0,0,0,0,0,0,0,0,0,0,0,0,0,0,0,0,0,0,0,0,0,7.4155,7.4157,0,7.427,7.4271,7.4273,7.4231,7.4228,7.4226,7.4223,7.4332,7.4337,7.4342,0,0,0,0,0,0,0,0,0,0,0,0,0,7.3891,7.3896,7.4155,7.4157,7.4158,7.427,7.4271,7.4273,7.4231,7.4228,7.4225,7.4222,7.433,7.4336,7.4343,0,0,0,0,0,0,0,0,0,0,0,0,0,7.4006,7.3898,7.4155,7.4151,7.4152,7.427,7.4272,7.4273,7.4232,7.4228,7.4224,7.4221,7.4328,7.4336,7.4343,7.4469,0,0,7.4368,7.4371,0,0,0,0,0,0,0,0,7.3999,7.4015,7.415,7.4152,7.4153,7.4232,7.4218,7.4339,7.4233,7.4201,7.4223,7.4219,7.4301,7.4311,7.4341,7.4474,7.4479,7.4368,7.4373,7.4376,7.4379,0,0,0,0,0,0,0,7.3991,7.401,7.42,7.4152,7.4154,7.414,7.4153,7.4241,7.4271,7.4204,7.4201,7.4216,7.4301,7.4333,7.4343,7.4481,7.4368,7.4375,7.438,7.4383,7.4721,7.4725,0,0,0,0,0,0,7.3984,7.4004,7.4197,7.4204,7.4065,7.4148,7.4162,7.421,7.427,7.4276,7.4219,7.4213,7.4322,7.4334,7.4347,7.4497,7.4376,7.4384,7.4388,7.4717,7.4722,7.4727,0,0,0,0,0,0,7.3979,7.4002,7.4192,7.4103,7.4127,7.4157,7.4212,7.4215,7.4247,7.4282,7.4286,7.4247,7.4319,7.4335,7.4439,7.45,7.4387,7.4395,7.4712,7.4719,7.4725,7.4799,0,0,0,0,0,0,7.3971,7.4,7.405,7.4105,7.4132,7.4286,7.4216,7.422,7.4262,7.4256,7.4309,7.4314,7.4317,7.4428,7.4447,7.4509,7.4401,7.4707,7.4715,7.4723,7.4791,7.4807,7.4821,0,0,0,0,0,7.3962,7.4065,7.4053,7.4077,7.4196,7.429,7.4304,7.4309,7.4267,7.4316,7.4338,7.4312,7.4491,7.4439,7.446,7.4525,7.4703,7.4713,7.4722,7.4785,7.4804,7.482,0,0,0,0,0,0,7.4013,7.4072,7.4059,7.4184,7.4233,7.4282,7.4345,7.4329,7.4388,7.438,7.438,7.4392,7.4499,7.4522,7.4464,7.4649,7.459,7.4604,7.463,7.4649,7.4664,7.4655,7.4407,0,0,0,0,0,7.404,7.4115,7.416,7.4265,7.4291,7.4314,7.4355,7.4355,7.4403,7.4423,7.4452,7.4499,7.4565,7.4608,7.4671,7.4795,7.4804,7.485,7.4865,7.4877,7.4888,7.4954,7.4974,7.4758,7.4758,7.4758,0,0,7.4094,7.4135,7.4182,7.4277,7.4315,7.4389,7.4331,7.4412,7.4467,7.4434,7.4535,7.4558,7.4609,7.4723,7.4775,7.4746,7.495,7.4889,7.4898,7.4903,7.4966,7.4986,7.5004,7.4765,7.4763,7.4762,0,0,7.4231,7.4271,7.4362,7.4402,7.4461,7.4475,7.4497,7.455,7.4565,7.4667,7.4644,7.4707,7.4821,7.4859,7.4893,7.5044,7.5021,7.5064,7.5141,7.5204,7.5221,7.5236,7.5289,7.5308,7.5076,7.5076,7.5076,0,7.429,7.4404,7.441,7.4494,7.4536,7.4513,7.4604,7.4641,7.4716,7.4744,7.4711,7.4855,7.4887,7.5009,7.5046,7.5075,7.5098,7.5057,7.5219,7.5234,7.5248,7.5298,7.5318,7.5081,7.508,7.508,7.508,0,7.4473,7.4552,7.4619,7.4695,7.4744,7.4831,7.4848,7.4896,7.4891,7.4909,7.5011,7.505,7.512,7.5149,7.5144,7.527,7.525,7.5219,7.5159,7.5274,7.532,7.534,7.5088,7.5086,7.5085,7.5084,0,0,7.4644,7.4725,7.4749,7.4783,7.4846,7.4906,7.4991,7.5062,7.5103,7.5155,7.5224,7.5322,7.5294,7.5332,7.5331,7.5387,7.5503,7.5348,7.5349,7.5374,7.5642,7.5665,7.5687,7.5489,7.5493,7.5496,7.5637,0,7.4785,7.4938,7.4946,7.5083,7.5155,7.5135,7.5208,7.5253,7.5272,7.5333,7.5352,7.5421,7.5378,7.5401,7.5456,7.5477,7.5556,7.5467,7.5551,7.5554,7.5538,7.5712,7.5736,7.5868,7.5656,7.5659,7.5661,0,7.497,7.5031,7.5177,7.523,7.526,7.5327,7.5392,7.5452,7.5502,7.5511,7.5555,7.5546,7.5629,7.5568,7.5682,7.5621,7.5656,7.5671,7.5676,7.5683,7.5614,7.5722,7.5911,7.593,7.569,7.5688,7.5686,0,7.5079,7.5197,7.53,7.533,7.5394,7.5441,7.5469,7.5516,7.5558,7.5615,7.5642,7.5706,7.5741,7.579,7.5797,7.5752,7.5911,7.585,7.5918,7.5918,7.5952,7.5949,7.6147,7.5976,7.5976,7.5976,7.5975,0,7.5234,7.5324,7.535,7.5412,7.5511,7.5518,7.5615,7.5639,7.5681,7.5745,7.573,7.5791,7.5798,7.5859,7.5865,7.5958,7.5973,7.5981,7.5981,7.5982,7.5981,7.6003,7.5994,7.5981,7.598,7.5979,7.5978,0,7.5372,7.5394,7.5504,7.5557,7.5572,7.5642,7.5686,7.5744,7.5761,7.5843,7.5863,7.5889,7.596,7.5973,7.6057,7.606,7.6171,7.6162,7.6155,7.6153,7.622,7.6213,7.6439,7.6468,7.6279,7.6281,7.6282,0,7.547,7.5539,7.56,7.5644,7.5676,7.5746,7.579,7.5799,7.5845,7.5907,7.5957,7.6028,7.6085,7.62,7.6224,7.6288,7.628,7.6354,7.6289,7.6287,7.6279,7.6275,7.628,7.6366,7.6368,7.637,7.6371,0,7.564,7.5648,7.5713,7.5783,7.5837,7.5891,7.5942,7.5978,7.5993,7.6045,7.612,7.6164,7.6251,7.632,7.6384,7.6409,7.6392,7.6392,7.6411,7.6412,7.6404,7.6408,7.6188,7.6386,7.6385,7.6384,7.6383,7.6382,7.576,7.582,7.5873,7.5946,7.5986,7.6035,7.6092,7.6118,7.6181,7.6255,7.6255,7.6337,7.6383,7.6467,7.6497,7.6558,7.6534,7.6562,7.6568,7.6575,7.6581,7.6396,7.657,7.6569,7.6569,7.6569,7.6568,0,7.5928,7.5962,7.603,7.6103,7.616,7.6143,7.6199,7.6246,7.632,7.6366,7.6423,7.6508,7.6575,7.6606,7.6671,7.6715,7.6708,7.6731,7.6727,7.6733,7.6599,7.6576,7.6735,7.6735,7.6735,7.6735,7.6735,7.6735,7.6023,7.6123,7.6137,7.6256,7.6287,7.637,7.6403,7.6446,7.6484,7.658,7.6638,7.6658,7.6697,7.6765,7.6825,7.6832,7.6856,7.6883,7.6886,7.676,7.6743,7.6727,7.6705,7.6888,7.6888,7.7014,7.7015,7.7016]}]]